[[{"header":{"parameterUnit":"m.s-1","parameterCategory":1,"la1":30.2991,"la2":30.254,"lo1":-89.0895,"lo2":-89.0444,"dy":0.0017,"dx":0.0017,"nx":28,"ny":28,"refTime":"2024-04-04T21:00:00:Z","depth":0,"parameterNumber":2,"parameterNumberName":"U-component_of_WINDS"},"data":[0,0,0,0,0,0,0,0,0,0,0,0,0,0,0,0,0,0,0,0,0,0,0,0,0,0,0,0,0,0,0,0,0,0,0,0,0,0,0,0,0,0,0,0,0,0,0,0,0,0,0,0,0,0,0,0,0,0,-2.6362,-2.6362,0,-2.6302,-2.6302,-2.6301,-2.6193,-2.6191,-2.6189,-2.6187,-2.6128,-2.6128,-2.6128,0,0,0,0,0,0,0,0,0,0,0,0,0,-2.6385,-2.6385,-2.6362,-2.6362,-2.6361,-2.6303,-2.6302,-2.6301,-2.6193,-2.6191,-2.6188,-2.6186,-2.6127,-2.6128,-2.6128,0,0,0,0,0,0,0,0,0,0,0,0,0,-2.6356,-2.6385,-2.6363,-2.63,-2.6294,-2.6303,-2.6302,-2.6301,-2.6194,-2.6191,-2.6187,-2.6185,-2.6127,-2.6128,-2.6128,-2.6194,0,0,-2.613,-2.613,0,0,0,0,0,0,0,0,-2.6357,-2.6355,-2.631,-2.6304,-2.6297,-2.6252,-2.6288,-2.6265,-2.6194,-2.6232,-2.6187,-2.6183,-2.6172,-2.6168,-2.6164,-2.6191,-2.6189,-2.613,-2.613,-2.6131,-2.6131,0,0,0,0,0,0,0,-2.636,-2.6357,-2.6339,-2.6309,-2.6302,-2.6276,-2.6268,-2.6283,-2.622,-2.6228,-2.622,-2.6215,-2.6168,-2.6164,-2.6162,-2.6188,-2.613,-2.6131,-2.6131,-2.6131,-2.6264,-2.6267,0,0,0,0,0,0,-2.637,-2.6359,-2.6341,-2.6337,-2.632,-2.6278,-2.6269,-2.627,-2.6219,-2.6209,-2.6217,-2.621,-2.6164,-2.6161,-2.6159,-2.623,-2.6131,-2.6131,-2.6131,-2.6261,-2.6265,-2.6268,0,0,0,0,0,0,-2.6371,-2.637,-2.6343,-2.6346,-2.634,-2.6281,-2.6282,-2.627,-2.6266,-2.6211,-2.6199,-2.6225,-2.6162,-2.6159,-2.6186,-2.6227,-2.6131,-2.6132,-2.6257,-2.6262,-2.6267,-2.6376,0,0,0,0,0,0,-2.6373,-2.6371,-2.6395,-2.6347,-2.6341,-2.637,-2.6285,-2.6271,-2.6267,-2.6257,-2.6215,-2.6205,-2.6159,-2.6185,-2.6186,-2.6226,-2.6132,-2.6253,-2.6259,-2.6265,-2.6368,-2.6383,-2.6397,0,0,0,0,0,-2.6374,-2.6429,-2.6396,-2.6395,-2.6369,-2.6373,-2.6369,-2.6314,-2.6271,-2.6294,-2.6259,-2.6206,-2.6223,-2.6189,-2.6189,-2.623,-2.625,-2.6258,-2.6265,-2.6361,-2.638,-2.6396,0,0,0,0,0,0,-2.6483,-2.6421,-2.6385,-2.6426,-2.6405,-2.6354,-2.6382,-2.6336,-2.6328,-2.6319,-2.6252,-2.6243,-2.6279,-2.6258,-2.6221,-2.629,-2.6228,-2.6236,-2.6302,-2.632,-2.6334,-2.6337,-2.6133,0,0,0,0,0,-2.6512,-2.652,-2.6465,-2.6507,-2.6498,-2.6443,-2.6442,-2.6402,-2.6378,-2.6369,-2.6335,-2.6315,-2.6315,-2.6317,-2.6314,-2.6365,-2.6354,-2.6394,-2.6408,-2.642,-2.6426,-2.645,-2.6466,-2.6292,-2.6292,-2.6292,0,0,-2.6572,-2.6539,-2.6548,-2.6528,-2.6507,-2.6516,-2.6436,-2.645,-2.6455,-2.6371,-2.6393,-2.6369,-2.6341,-2.638,-2.6396,-2.6363,-2.6472,-2.6429,-2.6439,-2.6439,-2.6459,-2.6475,-2.649,-2.6297,-2.6296,-2.6295,0,0,-2.6685,-2.6662,-2.6692,-2.6673,-2.6642,-2.6605,-2.6613,-2.6569,-2.6549,-2.657,-2.6506,-2.6514,-2.6516,-2.6498,-2.649,-2.6597,-2.6547,-2.6598,-2.6673,-2.6696,-2.671,-2.6722,-2.6757,-2.6771,-2.6606,-2.6606,-2.6606,0,-2.6763,-2.6773,-2.6714,-2.6731,-2.6724,-2.6648,-2.6678,-2.6663,-2.6634,-2.663,-2.6595,-2.6595,-2.6572,-2.6604,-2.663,-2.6627,-2.6633,-2.6601,-2.6713,-2.6724,-2.6734,-2.6767,-2.6781,-2.6612,-2.6611,-2.6611,-2.661,0,-2.687,-2.6878,-2.6907,-2.6879,-2.6875,-2.69,-2.6844,-2.6848,-2.6809,-2.6775,-2.6798,-2.6767,-2.6756,-2.6762,-2.6724,-2.6789,-2.6769,-2.6725,-2.6661,-2.6758,-2.6787,-2.68,-2.6621,-2.6619,-2.6617,-2.6615,0,0,-2.7047,-2.6987,-2.6998,-2.6983,-2.6945,-2.695,-2.6971,-2.6959,-2.6963,-2.6946,-2.6961,-2.6965,-2.6923,-2.6913,-2.6873,-2.6894,-2.6978,-2.6846,-2.6845,-2.6869,-2.7045,-2.7076,-2.7092,-2.6946,-2.6949,-2.695,-2.7046,0,-2.7149,-2.7179,-2.7127,-2.717,-2.7176,-2.7104,-2.7122,-2.7101,-2.7071,-2.7072,-2.7039,-2.7041,-2.6987,-2.6981,-2.6999,-2.6964,-2.7012,-2.6957,-2.6958,-2.6959,-2.6963,-2.7108,-2.7141,-2.7233,-2.7058,-2.706,-2.7061,0,-2.7271,-2.7258,-2.7302,-2.7259,-2.726,-2.7276,-2.7261,-2.7264,-2.7238,-2.7214,-2.7204,-2.7156,-2.7174,-2.7115,-2.7137,-2.71,-2.7098,-2.7082,-2.7084,-2.7079,-2.7013,-2.7104,-2.7261,-2.7274,-2.708,-2.7078,-2.7077,0,-2.7392,-2.7387,-2.7411,-2.7402,-2.7354,-2.7367,-2.7348,-2.7318,-2.7315,-2.7302,-2.7298,-2.7289,-2.7283,-2.7277,-2.7228,-2.719,-2.7255,-2.7192,-2.7234,-2.7236,-2.7249,-2.7248,-2.7404,-2.7254,-2.7253,-2.7253,-2.7253,0,-2.7509,-2.7538,-2.7465,-2.7479,-2.7509,-2.745,-2.7481,-2.7455,-2.743,-2.7438,-2.7377,-2.7387,-2.7323,-2.7325,-2.7287,-2.731,-2.7309,-2.7289,-2.7278,-2.7293,-2.7295,-2.7288,-2.7279,-2.7257,-2.7256,-2.7255,-2.7255,0,-2.7648,-2.7601,-2.7622,-2.7575,-2.7564,-2.7587,-2.7547,-2.7558,-2.7525,-2.7536,-2.7536,-2.7483,-2.7483,-2.7434,-2.7424,-2.7399,-2.7436,-2.7415,-2.7444,-2.7436,-2.748,-2.7475,-2.7635,-2.7651,-2.7494,-2.7495,-2.7497,0,-2.7724,-2.7743,-2.7699,-2.7699,-2.7683,-2.7685,-2.7681,-2.7624,-2.7622,-2.7594,-2.7609,-2.7604,-2.7595,-2.7598,-2.7559,-2.7551,-2.7527,-2.7584,-2.7526,-2.7539,-2.7524,-2.7522,-2.7523,-2.7595,-2.7597,-2.7599,-2.76,0,-2.7862,-2.7838,-2.7833,-2.7821,-2.7817,-2.7805,-2.7788,-2.7793,-2.7731,-2.7732,-2.773,-2.7724,-2.7713,-2.7708,-2.7693,-2.7673,-2.7626,-2.762,-2.7628,-2.7641,-2.7656,-2.7645,-2.7474,-2.7615,-2.7614,-2.7613,-2.7612,-2.7611,-2.7969,-2.7983,-2.7953,-2.795,-2.7932,-2.7918,-2.7926,-2.7894,-2.7891,-2.7877,-2.7845,-2.7848,-2.7821,-2.7796,-2.778,-2.7782,-2.7753,-2.7767,-2.7769,-2.7773,-2.778,-2.7659,-2.7779,-2.7779,-2.7778,-2.7778,-2.7778,0,-2.8102,-2.8079,-2.8077,-2.8056,-2.8053,-2.801,-2.799,-2.7991,-2.7994,-2.7973,-2.7967,-2.7965,-2.796,-2.7921,-2.7911,-2.792,-2.7898,-2.7919,-2.7916,-2.7911,-2.7807,-2.7799,-2.7936,-2.7936,-2.7936,-2.7936,-2.7936,-2.7936,-2.817,-2.819,-2.8162,-2.8173,-2.815,-2.8152,-2.8144,-2.8131,-2.8114,-2.8114,-2.8109,-2.8084,-2.8055,-2.8043,-2.8036,-2.8025,-2.8023,-2.805,-2.8032,-2.7934,-2.7919,-2.7904,-2.7896,-2.8051,-2.8051,-2.8135,-2.8135,-2.8136]},{"header":{"parameterUnit":"m.s-1","parameterCategory":1,"la1":30.2991,"la2":30.254,"lo1":-89.0895,"lo2":-89.0444,"dy":0.0017,"dx":0.0017,"nx":28,"ny":28,"refTime":"2024-04-04T21:00:00:Z","depth":0,"parameterNumber":3,"parameterNumberName":"V-component_of_WINDS"},"data":[0,0,0,0,0,0,0,0,0,0,0,0,0,0,0,0,0,0,0,0,0,0,0,0,0,0,0,0,0,0,0,0,0,0,0,0,0,0,0,0,0,0,0,0,0,0,0,0,0,0,0,0,0,0,0,0,0,0,-1.8346,-1.8347,0,-1.8442,-1.8443,-1.8445,-1.8484,-1.8484,-1.8484,-1.8484,-1.858,-1.8583,-1.8586,0,0,0,0,0,0,0,0,0,0,0,0,0,-1.8194,-1.8196,-1.8346,-1.8347,-1.8348,-1.8442,-1.8443,-1.8445,-1.8484,-1.8484,-1.8484,-1.8484,-1.8579,-1.8583,-1.8586,0,0,0,0,0,0,0,0,0,0,0,0,0,-1.8272,-1.8197,-1.8346,-1.838,-1.8384,-1.8442,-1.8444,-1.8445,-1.8484,-1.8484,-1.8484,-1.8484,-1.8578,-1.8582,-1.8586,-1.8618,0,0,-1.8599,-1.8601,0,0,0,0,0,0,0,0,-1.8267,-1.8277,-1.8373,-1.8377,-1.8382,-1.8451,-1.8425,-1.8503,-1.8484,-1.8446,-1.8484,-1.8483,-1.8537,-1.8545,-1.8564,-1.8622,-1.8626,-1.8599,-1.8602,-1.8604,-1.8605,0,0,0,0,0,0,0,-1.8262,-1.8274,-1.8384,-1.8375,-1.838,-1.8389,-1.84,-1.844,-1.8492,-1.8449,-1.8453,-1.8463,-1.854,-1.8559,-1.8566,-1.8628,-1.8599,-1.8603,-1.8606,-1.8607,-1.8716,-1.8717,0,0,0,0,0,0,-1.8251,-1.8269,-1.8381,-1.8387,-1.8323,-1.8392,-1.8404,-1.8429,-1.8492,-1.8501,-1.8464,-1.8465,-1.8553,-1.8561,-1.857,-1.861,-1.8604,-1.8608,-1.861,-1.8716,-1.8717,-1.8717,0,0,0,0,0,0,-1.8248,-1.8261,-1.8377,-1.8329,-1.8344,-1.8395,-1.8423,-1.8431,-1.8451,-1.8503,-1.8512,-1.8474,-1.8553,-1.8564,-1.8606,-1.8614,-1.8609,-1.8613,-1.8715,-1.8716,-1.8717,-1.8692,0,0,0,0,0,0,-1.8243,-1.826,-1.8273,-1.8329,-1.8347,-1.8412,-1.8423,-1.8433,-1.8458,-1.8461,-1.8515,-1.8524,-1.8553,-1.8599,-1.861,-1.862,-1.8616,-1.8715,-1.8716,-1.8717,-1.8692,-1.8691,-1.8691,0,0,0,0,0,-1.8238,-1.8261,-1.8273,-1.8286,-1.8364,-1.8413,-1.8423,-1.8457,-1.8459,-1.8472,-1.8505,-1.8522,-1.8611,-1.8603,-1.8615,-1.8627,-1.8715,-1.8716,-1.8716,-1.8692,-1.8691,-1.8691,0,0,0,0,0,0,-1.8204,-1.8269,-1.8283,-1.8326,-1.8363,-1.8419,-1.8437,-1.8455,-1.8492,-1.8493,-1.8533,-1.8545,-1.8583,-1.8609,-1.8598,-1.866,-1.8664,-1.8668,-1.8642,-1.8641,-1.8641,-1.8634,-1.862,0,0,0,0,0,-1.8202,-1.8237,-1.8291,-1.8323,-1.8342,-1.8386,-1.8408,-1.8431,-1.8471,-1.8487,-1.8523,-1.8561,-1.8598,-1.8621,-1.8657,-1.8696,-1.8708,-1.8709,-1.8709,-1.8708,-1.8711,-1.8732,-1.8733,-1.872,-1.872,-1.872,0,0,-1.8197,-1.8237,-1.8257,-1.8318,-1.835,-1.8384,-1.8399,-1.8435,-1.846,-1.8492,-1.8534,-1.8562,-1.8606,-1.8646,-1.8666,-1.8669,-1.8717,-1.8709,-1.8708,-1.8711,-1.8733,-1.8734,-1.8736,-1.8721,-1.8721,-1.8721,0,0,-1.8207,-1.824,-1.8271,-1.8302,-1.835,-1.838,-1.8387,-1.844,-1.846,-1.8502,-1.8527,-1.8557,-1.862,-1.865,-1.8674,-1.8694,-1.8711,-1.8704,-1.8702,-1.8722,-1.8723,-1.8724,-1.8731,-1.8733,-1.8707,-1.8707,-1.8707,0,-1.8195,-1.8248,-1.8284,-1.8318,-1.8344,-1.8375,-1.8406,-1.8434,-1.8491,-1.8508,-1.8511,-1.859,-1.8622,-1.867,-1.8674,-1.8693,-1.8701,-1.8699,-1.872,-1.8722,-1.8723,-1.873,-1.8733,-1.8706,-1.8706,-1.8706,-1.8706,0,-1.823,-1.8267,-1.8285,-1.834,-1.8368,-1.84,-1.844,-1.8464,-1.8484,-1.8512,-1.8555,-1.8595,-1.8639,-1.8652,-1.8672,-1.8702,-1.8703,-1.8713,-1.8718,-1.8723,-1.873,-1.8733,-1.8704,-1.8704,-1.8705,-1.8705,0,0,-1.8222,-1.8296,-1.8302,-1.8327,-1.8382,-1.841,-1.8443,-1.8488,-1.8507,-1.8545,-1.8573,-1.8625,-1.8634,-1.8661,-1.8684,-1.8702,-1.8715,-1.871,-1.8712,-1.8709,-1.875,-1.8742,-1.8745,-1.8727,-1.8727,-1.8728,-1.8746,0,-1.8238,-1.8299,-1.8332,-1.8379,-1.8413,-1.8443,-1.8471,-1.8508,-1.8535,-1.8566,-1.8596,-1.8632,-1.8642,-1.8658,-1.8677,-1.8709,-1.8724,-1.8708,-1.8753,-1.8754,-1.8741,-1.8749,-1.8741,-1.8756,-1.8749,-1.875,-1.875,0,-1.8265,-1.8303,-1.8354,-1.8404,-1.842,-1.8445,-1.8488,-1.8518,-1.856,-1.8578,-1.8608,-1.8631,-1.8666,-1.8668,-1.8717,-1.8705,-1.8725,-1.8744,-1.8745,-1.8751,-1.8752,-1.8754,-1.8762,-1.8764,-1.8755,-1.8754,-1.8754,0,-1.8253,-1.8317,-1.8356,-1.8376,-1.8436,-1.8453,-1.8479,-1.852,-1.8544,-1.8582,-1.8598,-1.8638,-1.866,-1.8691,-1.8724,-1.8723,-1.8769,-1.8774,-1.8785,-1.8784,-1.8793,-1.8792,-1.8805,-1.8806,-1.8806,-1.8806,-1.8806,0,-1.8268,-1.8298,-1.8351,-1.8375,-1.8408,-1.8445,-1.8478,-1.8505,-1.8542,-1.8571,-1.8598,-1.8625,-1.8667,-1.8698,-1.8724,-1.876,-1.877,-1.8785,-1.8792,-1.8783,-1.8781,-1.8797,-1.8796,-1.8806,-1.8806,-1.8806,-1.8806,0,-1.826,-1.8298,-1.8341,-1.8395,-1.8409,-1.8431,-1.8476,-1.85,-1.8528,-1.8564,-1.8575,-1.8619,-1.8658,-1.8694,-1.8745,-1.8762,-1.8798,-1.8807,-1.8784,-1.8788,-1.8796,-1.8795,-1.8819,-1.8824,-1.8822,-1.8822,-1.8822,0,-1.8267,-1.8291,-1.8347,-1.8368,-1.8394,-1.8428,-1.8453,-1.849,-1.8515,-1.8564,-1.8581,-1.8621,-1.8656,-1.8715,-1.8752,-1.8791,-1.88,-1.8806,-1.8807,-1.8797,-1.88,-1.8799,-1.8801,-1.8805,-1.8805,-1.8805,-1.8805,0,-1.8276,-1.8293,-1.8328,-1.837,-1.8399,-1.8433,-1.8469,-1.8484,-1.8528,-1.8554,-1.8594,-1.8621,-1.8673,-1.8712,-1.8755,-1.8781,-1.88,-1.8805,-1.8809,-1.88,-1.8786,-1.8794,-1.8782,-1.8804,-1.8804,-1.8804,-1.8804,-1.8804,-1.8276,-1.8298,-1.834,-1.8379,-1.8409,-1.8441,-1.8466,-1.8497,-1.8531,-1.8577,-1.8597,-1.8637,-1.8677,-1.8737,-1.8762,-1.8793,-1.8798,-1.8804,-1.8806,-1.8807,-1.8805,-1.8781,-1.8801,-1.8802,-1.8802,-1.8802,-1.8802,0,-1.8285,-1.8314,-1.8349,-1.8397,-1.8427,-1.8443,-1.8483,-1.8506,-1.8541,-1.8577,-1.8611,-1.8656,-1.8694,-1.8733,-1.8774,-1.8791,-1.8801,-1.8801,-1.88,-1.8805,-1.8799,-1.8791,-1.8792,-1.8792,-1.8792,-1.8792,-1.8792,-1.8792,-1.8294,-1.8332,-1.8354,-1.8407,-1.8435,-1.8475,-1.8496,-1.8526,-1.8555,-1.8604,-1.8637,-1.8662,-1.8699,-1.8742,-1.8778,-1.8789,-1.8802,-1.8799,-1.8812,-1.8805,-1.8806,-1.8806,-1.8799,-1.8802,-1.8802,-1.8816,-1.8816,-1.8816]}]]